Overview Statistics Trail Chart Weather Telemetry Raw packets
 

This is the latest recevied weather packets stored in our database for station/object KN6CRX-10. If no packets are shown the sender has not sent any weather packets the latest 10 day(s).

<< 7 8 9 10 11 12 13 >>
Time Temp. Humidity Pressure Rain* Wind** Luminosity Snow
1788373926 24.44° C 29% 1015.5 hPa 0 mm - 167 W/m² -
1788373621 25° C 29% 1015.5 hPa 0 mm - 158 W/m² -
1788373318 25° C 27% 1015.7 hPa 0 mm - 117 W/m² -
1788373013 25° C 29% 1015.5 hPa 0 mm - 197 W/m² -
1788372708 25° C 29% 1015.9 hPa 0 mm - 702 W/m² -
1788372408 25° C 27% 1015.7 hPa 0 mm - 763 W/m² -
1788372104 25° C 28% 1016 hPa 0 mm - 729 W/m² -
1788371803 25° C 30% 1015.6 hPa 0 mm - 732 W/m² -
1788371499 25° C 30% 1015.6 hPa 0 mm - 623 W/m² -
1788371195 24.44° C 29% 1015.6 hPa 0 mm - 631 W/m² -
1788370891 24.44° C 29% 1015.9 hPa 0 mm - 741 W/m² -
1788370586 24.44° C 29% 1015.9 hPa 0 mm - 737 W/m² -
1788370281 24.44° C 30% 1016 hPa 0 mm - 685 W/m² -
1788369975 24.44° C 33% 1016 hPa 0 mm - 718 W/m² -
1788369674 24.44° C 32% 1015.9 hPa 0 mm - 711 W/m² -
1788369370 24.44° C 31% 1015.9 hPa 0 mm - 653 W/m² -
1788369066 23.89° C 33% 1015.7 hPa 0 mm - 661 W/m² -
1788368762 23.89° C 34% 1016.1 hPa 0 mm - 640 W/m² -
1788368457 23.89° C 31% 1016 hPa 0 mm - 621 W/m² -
1788368157 23.33° C 32% 1016 hPa 0 mm - 612 W/m² -
1788367851 23.33° C 35% 1016 hPa 0 mm - 595 W/m² -
1788367547 23.33° C 38% 1016 hPa 0 mm - 581 W/m² -
1788367245 22.78° C 40% 1015.7 hPa 0 mm - 561 W/m² -
1788366941 22.78° C 41% 1015.9 hPa 0 mm - 545 W/m² -
1788366639 22.78° C 43% 1015.9 hPa 0 mm - 516 W/m² -

* Rain latest hour (hover to see other rain measurements)
** Current wind speed in m/s (hover to see current wind gust speed)